CW1353 Mobile AL US current weather conditions

sailwx.info

Wind from 317 at 4 knots gusting 12

Air temperature 16.1° C
Dewpoint -2.9° C

Last reported at 2019-Nov-15 21:00 UTC.
Time now 2019-Nov-15 21:26 UTC

Location: N 30°36' W 088°15'.
View on Google Maps.

See reports from other nearby stations

  
Tides and Currents Weather Stations Pressure Air Temp Water Temp Dewpoint Dewpoint Depression Visibility Wind Speed Wind Dir Waves Ship Positions
date/time (UTC)wind fromknots sea level pressurealtimeterstation pressurevisibilityair tempwater tempwave heightnotes
2019-Nov-15 21:00 317 4 gusting 12 16.1
2019-Nov-15 20:50 284 3 gusting 12 16.7
2019-Nov-15 20:40 317 3 gusting 10 16.7
2019-Nov-15 20:30 323 3 gusting 7 16.7
2019-Nov-15 20:20 317 4 gusting 7 16.7
2019-Nov-15 20:10 355 2 gusting 12 16.7
2019-Nov-15 20:00 320 1 gusting 12 16.7
2019-Nov-15 19:50 360 2 gusting 8 16.7
2019-Nov-15 19:40 319 5 gusting 13 16.7
2019-Nov-15 19:30 302 4 gusting 10 16.7
2019-Nov-15 19:20 069 4 gusting 9 16.7
2019-Nov-15 19:10 332 4 gusting 10 16.1
2019-Nov-15 19:00 340 4 gusting 10 16.7
2019-Nov-15 18:50 344 4 gusting 9 16.1
2019-Nov-15 18:40 316 6 gusting 11 15.6
2019-Nov-15 18:30 314 5 gusting 10 15.6
2019-Nov-15 18:20 325 5 gusting 11 15.6
2019-Nov-15 18:10 332 5 gusting 9 15.6
2019-Nov-15 18:00 323 3 gusting 12 15.6
2019-Nov-15 17:50 321 3 gusting 9 15.0
2019-Nov-15 17:40 312 5 gusting 12 15.0
2019-Nov-15 17:30 282 4 gusting 9 15.0
2019-Nov-15 17:20 325 4 gusting 8 15.0
2019-Nov-15 17:10 285 5 gusting 15 14.4
2019-Nov-15 17:00 331 3 gusting 12 13.9
2019-Nov-15 16:50 332 4 gusting 12 13.9
2019-Nov-15 16:40 340 4 gusting 11 13.9
2019-Nov-15 16:30 348 3 gusting 9 13.3
2019-Nov-15 16:20 312 2 gusting 7 13.3
2019-Nov-15 16:10 325 3 gusting 6 12.8
2019-Nov-15 16:00 355 4 gusting 9 12.2
2019-Nov-15 15:50 335 3 gusting 11 12.2
2019-Nov-15 15:40 339 3 gusting 7 11.7
2019-Nov-15 15:30 309 2 gusting 10 11.1
2019-Nov-15 15:20 005 3 gusting 9 11.1
2019-Nov-15 15:10 277 3 gusting 6 11.1
2019-Nov-15 15:00 331 3 gusting 8 10.6
2019-Nov-15 14:50 329 1 gusting 6 10.0
2019-Nov-15 14:40 325 2 gusting 6 9.4
2019-Nov-15 14:30 320 2 gusting 7 9.4
2019-Nov-15 14:20 330 2 gusting 7 8.9
2019-Nov-15 14:10 311 1 gusting 11 8.3
2019-Nov-15 14:00 064 2 gusting 7 7.8
2019-Nov-15 13:50 312 3 gusting 8 7.2
2019-Nov-15 13:40 283 4 gusting 8 6.7
2019-Nov-15 13:30 338 3 gusting 6 6.7
2019-Nov-15 13:20 306 3 gusting 6 6.1
2019-Nov-15 13:10 322 3 gusting 7 5.6
2019-Nov-15 13:00 313 1 gusting 8 5.6
2019-Nov-15 12:51 323 2 gusting 6 5.6
2019-Nov-15 12:40 311 2 gusting 8 5.6
2019-Nov-15 12:30 319 1 gusting 6 5.6
2019-Nov-15 12:20 232 2 gusting 5 5.6
2019-Nov-15 12:10 310 1 gusting 6 6.1
2019-Nov-15 12:00 325 0 gusting 5 6.1
2019-Nov-15 11:50 325 2 gusting 6 6.1
2019-Nov-15 11:40 319 1 gusting 6 6.1
2019-Nov-15 11:30 051 3 gusting 6 6.1
2019-Nov-15 11:20 317 1 gusting 6 6.1
2019-Nov-15 11:10 276 1 gusting 11 6.1
2019-Nov-15 11:00 319 3 gusting 6 6.1
2019-Nov-15 10:50 336 1 gusting 6 6.1
2019-Nov-15 10:40 329 3 gusting 8 6.7
2019-Nov-15 10:30 340 2 gusting 6 6.7
2019-Nov-15 10:20 329 4 gusting 8 6.7
2019-Nov-15 10:10 333 2 gusting 8 6.7
2019-Nov-15 10:00 334 5 gusting 10 6.7
2019-Nov-15 09:50 327 4 gusting 6 6.1
2019-Nov-15 09:40 267 3 gusting 8 6.1
2019-Nov-15 09:30 313 1 gusting 6 6.1
2019-Nov-15 09:20 321 2 gusting 6 6.1
2019-Nov-15 09:10 315 1 gusting 4 6.1
2019-Nov-15 09:00 320 3 gusting 9 6.7
2019-Nov-15 08:50 319 3 gusting 6 6.7
2019-Nov-15 08:40 317 2 gusting 6 6.7
2019-Nov-15 08:30 355 1 gusting 8 6.7
2019-Nov-15 08:20 340 3 gusting 8 6.7
2019-Nov-15 08:10 304 4 gusting 8 6.7
2019-Nov-15 08:00 319 1 gusting 7 7.2
2019-Nov-15 07:50 325 1 gusting 4 6.7
2019-Nov-15 07:40 339 1 gusting 5 7.2
2019-Nov-15 07:30 325 0 gusting 5 7.2
2019-Nov-15 07:20 317 0 gusting 5 7.2
2019-Nov-15 07:10 320 1 gusting 4 7.2
2019-Nov-15 07:00 339 0 gusting 2 6.7
2019-Nov-15 06:50 292 0 gusting 5 6.7
2019-Nov-15 06:40 336 0 gusting 6 6.7
2019-Nov-15 06:30 343 2 gusting 4 6.7
2019-Nov-15 06:20 355 1 gusting 6 6.7
2019-Nov-15 06:10 329 1 gusting 4 6.7
2019-Nov-15 06:00 323 2 gusting 6 6.7
2019-Nov-15 05:40 325 2 gusting 6 6.1
2019-Nov-15 05:30 351 1 gusting 6 6.1
2019-Nov-15 05:20 318 2 gusting 5 6.1
2019-Nov-15 05:10 321 2 gusting 6 6.7
2019-Nov-15 05:00 327 1 gusting 6 6.7
2019-Nov-15 04:50 306 1 gusting 6 6.7
2019-Nov-15 04:40 321 2 gusting 6 6.7
2019-Nov-15 04:30 325 1 gusting 6 6.7
2019-Nov-15 04:20 315 1 gusting 5 6.7
2019-Nov-15 04:10 313 1 gusting 7 6.7
2019-Nov-15 04:00 335 2 gusting 6 6.7
2019-Nov-15 03:50 321 1 gusting 5 6.7
2019-Nov-15 03:40 308 1 gusting 6 6.7
2019-Nov-15 03:30 319 1 gusting 5 6.7
2019-Nov-15 03:20 334 3 gusting 6 6.7
2019-Nov-15 03:10 005 3 gusting 8 6.7
2019-Nov-15 03:00 330 0 gusting 4 7.2
2019-Nov-15 02:50 321 1 gusting 6 6.7
2019-Nov-15 02:40 309 1 gusting 5 7.2
2019-Nov-15 02:30 010 2 gusting 5 7.2
2019-Nov-15 02:20 319 1 gusting 5 7.2
2019-Nov-15 02:10 329 3 gusting 6 7.2
2019-Nov-15 02:00 355 0 gusting 5 7.2
2019-Nov-15 01:50 322 0 gusting 6 7.2
2019-Nov-15 01:40 319 2 gusting 6 7.2
2019-Nov-15 01:30 323 3 gusting 6 7.2
2019-Nov-15 01:20 351 1 gusting 4 7.2
2019-Nov-15 01:10 340 0 gusting 6 7.2
2019-Nov-15 01:00 333 1 gusting 6 7.2
2019-Nov-15 00:50 018 1 gusting 7 7.2
2019-Nov-15 00:40 041 2 gusting 6 7.2
2019-Nov-15 00:30 028 3 gusting 6 7.8
2019-Nov-15 00:20 027 1 gusting 5 7.8
2019-Nov-15 00:10 319 1 gusting 4 7.8
2019-Nov-15 00:00 323 0 gusting 4 7.8
2019-Nov-14 23:50 319 0 gusting 6 7.8
2019-Nov-14 23:40 324 2 gusting 5 8.3
2019-Nov-14 23:30 321 1 gusting 4 8.3
2019-Nov-14 23:20 355 0 gusting 3 8.3
2019-Nov-14 23:10 005 0 gusting 5 8.3
2019-Nov-14 23:00 323 0 gusting 4 8.9
2019-Nov-14 22:50 010 0 gusting 4 8.9
2019-Nov-14 22:40 037 0 gusting 5 9.4
2019-Nov-14 22:30 314 0 gusting 3 9.4
2019-Nov-14 22:20 327 0 gusting 6 9.4
2019-Nov-14 22:10 338 1 gusting 5 9.4
2019-Nov-14 22:00 032 0 gusting 6 10.0
2019-Nov-14 21:50 324 0 gusting 6 10.0
2019-Nov-14 21:40 325 0 gusting 5 10.0
2019-Nov-14 21:30 323 0 gusting 6 10.0
2019-Nov-14 21:20 321 2 gusting 4 10.0
2019-Nov-14 21:10 316 2 gusting 4 10.0
2019-Nov-14 21:00 327 2 gusting 7 10.6
2019-Nov-14 20:50 321 1 gusting 5 10.6
2019-Nov-14 20:40 005 1 gusting 4 10.6
2019-Nov-14 20:30 325 0 gusting 4 10.6
2019-Nov-14 20:20 355 2 gusting 6 10.6
2019-Nov-14 20:10 318 1 gusting 5 10.6
2019-Nov-14 20:00 329 0 gusting 4 10.6
2019-Nov-14 19:50 304 2 gusting 5 10.6
2019-Nov-14 19:40 315 1 gusting 4 10.6
2019-Nov-14 19:30 040 0 gusting 2 10.6
2019-Nov-14 19:20 335 0 gusting 1 10.6
2019-Nov-14 19:10 335 1 gusting 3 10.6
2019-Nov-14 19:00 030 0 gusting 4 10.6
2019-Nov-14 18:50 065 1 gusting 4 10.6
2019-Nov-14 18:40 077 1 gusting 5 10.6
2019-Nov-14 18:30 324 0 gusting 3 10.6
2019-Nov-14 18:20 033 0 gusting 3 10.6
2019-Nov-14 18:10 307 1 gusting 3 10.0
2019-Nov-14 18:00 317 0 gusting 4 10.0
2019-Nov-14 17:50 033 0 gusting 2 10.0
2019-Nov-14 17:40 059 1 gusting 5 10.0
2019-Nov-14 17:30 051 1 gusting 4 10.0
2019-Nov-14 17:20 036 1 gusting 5 10.0
2019-Nov-14 17:10 040 1 gusting 5 10.0
2019-Nov-14 17:00 064 0 gusting 6 10.0
2019-Nov-14 16:50 034 1 gusting 5 9.4
2019-Nov-14 16:40 044 0 gusting 4 9.4
2019-Nov-14 16:30 060 1 gusting 6 9.4
2019-Nov-14 16:20 063 1 gusting 2 9.4
2019-Nov-14 16:10 042 3 gusting 6 9.4
2019-Nov-14 16:00 027 1 gusting 4 8.9
2019-Nov-14 15:50 047 2 gusting 4 8.9
2019-Nov-14 15:40 041 1 gusting 4 8.9
2019-Nov-14 15:30 051 3 gusting 5 8.9
2019-Nov-14 15:20 068 8.3
2019-Nov-14 15:10 065 1 gusting 5 8.3
2019-Nov-14 15:00 067 1 gusting 5 8.3
2019-Nov-14 14:50 049 1 gusting 6 8.3
2019-Nov-14 14:40 023 0 gusting 4 7.8
2019-Nov-14 14:30 039 1 gusting 6 7.8
2019-Nov-14 14:20 058 0 gusting 3 7.8
2019-Nov-14 14:10 075 1 gusting 4 7.8
2019-Nov-14 14:00 022 0 gusting 2 7.8
2019-Nov-14 13:50 053 0 gusting 4 7.2
2019-Nov-14 13:40 319 1 gusting 5 7.2
2019-Nov-14 13:30 060 0 gusting 3 7.2
2019-Nov-14 13:20 074 0 gusting 3 7.2
2019-Nov-14 13:10 013 0 gusting 2 7.2
2019-Nov-14 13:00 044 7.2
2019-Nov-14 12:50 023 1 gusting 4 7.2
2019-Nov-14 12:30 042 0 gusting 1 7.2
2019-Nov-14 12:20 031 7.2
2019-Nov-14 12:10 040 0 gusting 2 7.2
2019-Nov-14 12:00 043 1 gusting 5 7.2
2019-Nov-14 11:50 038 2 gusting 6 7.2
2019-Nov-14 11:40 057 0 gusting 2 7.2
2019-Nov-14 11:30 069 0 gusting 1 7.2
2019-Nov-14 11:20 069 0 gusting 3 7.2
2019-Nov-14 11:10 068 0 gusting 4 7.2
2019-Nov-14 11:00 082 0 gusting 1 7.2
2019-Nov-14 10:50 082 0 gusting 4 7.2
2019-Nov-14 10:40 071 0 gusting 2 7.2
2019-Nov-14 10:30 046 7.2
2019-Nov-14 10:20 055 0 gusting 7 7.2
2019-Nov-14 10:10 059 1 gusting 4 7.2
2019-Nov-14 10:00 108 2 gusting 5 7.2
2019-Nov-14 09:50 060 7.2
2019-Nov-14 09:40 055 1 gusting 2 7.2
2019-Nov-14 09:30 067 0 gusting 2 7.2
2019-Nov-14 09:20 080 1 gusting 3 7.8
2019-Nov-14 09:10 049 7.8
2019-Nov-14 09:00 049 0 gusting 1 7.2
2019-Nov-14 08:50 042 7.2
2019-Nov-14 08:40 031 7.2
2019-Nov-14 08:30 041 7.2
2019-Nov-14 08:20 049 0 gusting 5 7.2
2019-Nov-14 08:10 060 0 gusting 4 7.2
2019-Nov-14 08:00 045 3 gusting 6 7.2
2019-Nov-14 07:50 063 2 gusting 6 7.2
2019-Nov-14 07:40 094 2 gusting 5 7.2
2019-Nov-14 07:30 069 1 gusting 6 7.2
2019-Nov-14 07:20 076 2 gusting 6 7.2
2019-Nov-14 07:10 065 1 gusting 6 7.2
2019-Nov-14 07:00 103 2 gusting 5 7.2
2019-Nov-14 06:50 076 3 gusting 6 7.2
2019-Nov-14 06:40 036 2 gusting 6 6.7
2019-Nov-14 06:30 117 2 gusting 5 6.7
2019-Nov-14 06:20 050 0 gusting 6 6.7
2019-Nov-14 06:10 050 1 gusting 4 6.7
2019-Nov-14 06:00 057 2 gusting 5 6.7
2019-Nov-14 05:50 053 1 gusting 4 6.7
2019-Nov-14 05:40 038 1 gusting 4 6.1
2019-Nov-14 05:30 076 0 gusting 2 6.1
2019-Nov-14 05:20 048 0 gusting 4 6.1
2019-Nov-14 05:10 036 0 gusting 4 5.6
2019-Nov-14 05:00 063 5.6
2019-Nov-14 04:50 063 5.6
2019-Nov-14 04:40 063 0 gusting 1 5.6
2019-Nov-14 04:30 063 5.6
2019-Nov-14 04:20 063 5.0
2019-Nov-14 04:10 063 5.0
2019-Nov-14 04:00 063 5.0
2019-Nov-14 03:50 063 5.0
2019-Nov-14 03:40 063 5.0
2019-Nov-14 03:30 063 5.0
2019-Nov-14 03:20 063 5.0
2019-Nov-14 03:10 063 5.0
2019-Nov-14 03:00 063 5.0
2019-Nov-14 02:50 063 5.0
2019-Nov-14 02:40 063 5.0
2019-Nov-14 02:30 063 0 gusting 0 4.4
2019-Nov-14 02:20 063 4.4
2019-Nov-14 02:10 063 4.4
2019-Nov-14 02:00 063 4.4
2019-Nov-14 01:50 063 5.0
2019-Nov-14 01:40 063 5.0
2019-Nov-14 01:30 063 5.0
2019-Nov-14 01:20 063 5.0
2019-Nov-14 01:10 063 0 gusting 1 5.0
2019-Nov-14 01:00 063 5.0
2019-Nov-14 00:50 063 5.0
2019-Nov-14 00:40 063 5.0
2019-Nov-14 00:30 063 5.0
2019-Nov-14 00:20 063 5.0
2019-Nov-14 00:10 063 5.0
2019-Nov-14 00:00 063 5.0
2019-Nov-13 23:50 063 5.6
2019-Nov-13 23:40 063 5.6
2019-Nov-13 23:30 063 6.1
2019-Nov-13 23:20 063 6.7
2019-Nov-13 23:10 063 7.2
2019-Nov-13 23:00 063 0 gusting 0 8.3
2019-Nov-13 22:50 063 8.9
2019-Nov-13 22:40 063 9.4
2019-Nov-13 22:30 063 0 gusting 3 10.0
2019-Nov-13 22:20 063 0 gusting 3 10.0
2019-Nov-13 22:10 061 1 gusting 4 10.6
2019-Nov-13 22:00 049 1 gusting 5 10.6
2019-Nov-13 21:50 034 0 gusting 4 11.1
2019-Nov-13 21:40 057 1 gusting 4 11.1
2019-Nov-13 21:30 335 0 gusting 3 11.1
2019-Nov-13 21:20 023 0 gusting 5 11.1
2019-Nov-13 21:10 069 1 gusting 3 11.7
2019-Nov-13 21:00 076 0 gusting 5 11.1